Weather History for KLAF - November, 2012

Change the Weather History Date:

Monday, November 26, 2012

  Actual Average Record
Temperature  
Mean Temperature 34 °F 38 °F  
Max Temperature 42 °F 46 °F 66 °F (2011)
Min Temperature 26 °F 30 °F 7 °F (1977)
Degree Days  
Heating Degree Days 31 27  
Month to date heating degree days 636 554  
Since 1 July heating degree days 1217 988  
Cooling Degree Days 0 0  
Month to date cooling degree days 0 0  
Year to date cooling degree days 1181 982  
Moisture  
Dew Point 26 °F    
Average Humidity 72    
Maximum Humidity 92    
Minimum Humidity 52    
Precipitation  
Precipitation T in 0.10 in 1.35 in (1985)
Month to date precipitation 0.80 2.57  
Year to date precipitation 27.70 33.67  
Sea Level Pressure  
Sea Level Pressure 30.23 in    
Wind  
Wind Speed 5 mph (North)    
Max Wind Speed 14 mph    
Max Gust Speed 17 mph    
Visibility 8 miles    
Events Snow    
T = Trace of Precipitation, MM = Missing Value Source: NWS Daily Summary

Daily Weather History Graph

Daily Weather History Graph

Search for Another Location

Airport or City:

Trip Planner

Search our weather history database for the weather conditions in past years. The results will help you decide how hot, cold, wet, or windy it might be!

Date:

Astronomy

Nov. 26, 2012 Rise Set
Actual Time 7:46 AM EST 5:23 PM EST
Civil Twilight 7:16 AM EST 5:53 PM EST
Nautical Twilight 6:43 AM EST 6:26 PM EST
Astronomical Twilight 6:10 AM EST 6:59 PM EST
Moon 4:15 PM EST (11/26) 5:56 AM EST (11/26)
Length of Visible Light 10h 36m
Length of Day
9h 36m
Waxing Gibbous, 97% of the Moon is Illuminated
Nov 26
Waxing Gibbous
Nov 28
Full
Dec 6
Last Quarter
Dec 13
New
Dec 20
First Quarter

Hourly Weather History & Observations

Time (EST) Temp. Windchill Dew Point Humidity Pressure Visibility Wind Dir Wind Speed Gust Speed Precip Events Conditions
12:54 AM 35.1 °F - 28.0 °F 76% 30.07 in 10.0 mi Calm Calm - N/A   Partly Cloudy
1:54 AM 36.0 °F 33.3 °F 27.0 °F 70% 30.09 in 10.0 mi NW 3.5 mph - N/A   Clear
2:54 AM 33.1 °F 27.7 °F 25.0 °F 72% 30.10 in 10.0 mi North 5.8 mph - N/A   Clear
3:54 AM 30.9 °F 25.2 °F 25.0 °F 79% 30.11 in 10.0 mi North 5.8 mph - N/A   Clear
4:54 AM 30.9 °F - 24.1 °F 76% 30.12 in 10.0 mi Calm Calm - N/A   Clear
5:54 AM 28.0 °F 22.8 °F 23.0 °F 81% 30.14 in 10.0 mi North 4.6 mph - N/A   Clear
6:54 AM 28.0 °F - 24.1 °F 85% 30.17 in 10.0 mi Calm Calm - N/A   Clear
7:54 AM 27.0 °F - 24.1 °F 89% 30.19 in 10.0 mi Calm Calm - N/A   Overcast
8:54 AM 28.9 °F - 24.1 °F 82% 30.21 in 10.0 mi Calm Calm - N/A   Mostly Cloudy
9:54 AM 37.0 °F 31.0 °F 28.0 °F 70% 30.22 in 10.0 mi North 8.1 mph - N/A   Clear
10:54 AM 37.9 °F 32.1 °F 28.0 °F 68% 30.24 in 10.0 mi NNE 8.1 mph - N/A   Clear
11:54 AM 39.9 °F 34.5 °F 28.0 °F 63% 30.24 in 10.0 mi NE 8.1 mph - N/A   Clear
12:54 PM 41.0 °F - 26.1 °F 55% 30.21 in 10.0 mi Calm Calm - N/A   Mostly Cloudy
1:54 PM 41.0 °F 36.4 °F 28.0 °F 60% 30.21 in 10.0 mi North 6.9 mph - N/A   Mostly Cloudy
2:54 PM 41.0 °F 35.8 °F 27.0 °F 57% 30.21 in 10.0 mi North 8.1 mph - N/A   Overcast
3:54 PM 37.9 °F 30.5 °F 24.1 °F 57% 30.22 in 10.0 mi North 11.5 mph - N/A   Overcast
4:54 PM 37.0 °F 29.8 °F 21.9 °F 54% 30.25 in 10.0 mi North 10.4 mph - N/A   Overcast
5:54 PM 36.0 °F 30.3 °F 23.0 °F 59% 30.26 in 10.0 mi North 6.9 mph - N/A   Overcast
6:54 PM 33.1 °F 26.9 °F 28.0 °F 82% 30.28 in 3.0 mi North 6.9 mph - 0.00 in Snow Light Snow
7:15 PM 32.0 °F 26.4 °F 28.4 °F 87% 30.27 in 3.0 mi NNW 5.8 mph - 0.00 in Snow Light Snow
7:50 PM 32.0 °F 25.6 °F 28.4 °F 87% 30.29 in 2.5 mi North 6.9 mph - 0.00 in Snow Light Snow
7:54 PM 32.0 °F 26.4 °F 28.9 °F 88% 30.31 in 2.5 mi North 5.8 mph - 0.00 in Snow Light Snow
8:10 PM 32.0 °F 27.5 °F 28.4 °F 87% 30.30 in 4.0 mi North 4.6 mph - 0.00 in Snow Light Snow
8:19 PM 32.0 °F 26.4 °F 28.4 °F 87% 30.30 in 8.0 mi NNW 5.8 mph - 0.00 in Snow Light Snow
8:54 PM 33.1 °F 27.7 °F 24.1 °F 70% 30.32 in 10.0 mi NNE 5.8 mph - 0.00 in   Overcast
9:54 PM 33.1 °F 28.7 °F 24.1 °F 70% 30.32 in 10.0 mi North 4.6 mph - N/A   Overcast
10:54 PM 30.9 °F - 26.1 °F 82% 30.34 in 4.0 mi Calm Calm - 0.00 in Snow Light Snow
11:54 PM 30.0 °F - 27.0 °F 88% 30.34 in 9.0 mi Calm Calm - 0.00 in   Overcast